[[{"header":{"parameterUnit":"m.s-1","parameterCategory":1,"la1":30.2991,"la2":30.254,"lo1":-89.0895,"lo2":-89.0444,"dy":0.0017,"dx":0.0017,"nx":28,"ny":28,"refTime":"2025-01-01T03:00:00:Z","depth":0,"parameterNumber":2,"parameterNumberName":"U-component_of_WINDS"},"data":[0,0,0,0,0,0,0,0,0,0,0,0,0,0,0,0,0,0,0,0,0,0,0,0,0,0,0,0,0,0,0,0,0,0,0,0,0,0,0,0,0,0,0,0,0,0,0,0,0,0,0,0,0,0,0,0,0,0,-2.6079,-2.608,0,-2.6159,-2.616,-2.6161,-2.6038,-2.6034,-2.6029,-2.6025,-2.6112,-2.6118,-2.6125,0,0,0,0,0,0,0,0,0,0,0,0,0,-2.5824,-2.5829,-2.6079,-2.608,-2.6081,-2.6159,-2.616,-2.6161,-2.6039,-2.6033,-2.6028,-2.6023,-2.611,-2.6118,-2.6125,0,0,0,0,0,0,0,0,0,0,0,0,0,-2.5923,-2.5831,-2.6079,-2.6029,-2.6026,-2.6159,-2.616,-2.6161,-2.604,-2.6033,-2.6027,-2.6021,-2.6108,-2.6117,-2.6126,-2.6313,0,0,-2.6155,-2.6159,0,0,0,0,0,0,0,0,-2.5917,-2.5932,-2.6036,-2.6033,-2.6029,-2.6082,-2.6102,-2.6213,-2.6041,-2.6035,-2.6025,-2.6018,-2.6108,-2.6117,-2.6146,-2.6317,-2.6321,-2.6156,-2.6162,-2.6166,-2.6168,0,0,0,0,0,0,0,-2.5911,-2.5928,-2.6111,-2.6037,-2.6033,-2.6004,-2.6011,-2.6122,-2.6106,-2.6035,-2.6026,-2.6037,-2.6105,-2.6137,-2.6147,-2.6322,-2.6156,-2.6164,-2.617,-2.6174,-2.6651,-2.6658,0,0,0,0,0,0,-2.5909,-2.5923,-2.6108,-2.6113,-2.5956,-2.6014,-2.6022,-2.6072,-2.6105,-2.6104,-2.6042,-2.6031,-2.6124,-2.6136,-2.615,-2.6372,-2.6166,-2.6175,-2.618,-2.6644,-2.6653,-2.666,0,0,0,0,0,0,-2.5904,-2.5927,-2.6105,-2.6016,-2.6036,-2.6025,-2.6082,-2.6077,-2.6109,-2.611,-2.6107,-2.6078,-2.612,-2.6136,-2.6273,-2.6373,-2.6179,-2.6187,-2.6636,-2.6647,-2.6657,-2.6817,0,0,0,0,0,0,-2.5898,-2.5926,-2.5996,-2.6018,-2.6042,-2.6227,-2.6088,-2.6083,-2.6125,-2.6111,-2.6143,-2.6143,-2.6116,-2.626,-2.6283,-2.6382,-2.6195,-2.6627,-2.6641,-2.6653,-2.6803,-2.6831,-2.6856,0,0,0,0,0,-2.5889,-2.6039,-2.6001,-2.6024,-2.6129,-2.6233,-2.6246,-2.6211,-2.6133,-2.6205,-2.6205,-2.6142,-2.6358,-2.6275,-2.63,-2.6404,-2.6621,-2.6637,-2.6652,-2.6791,-2.6826,-2.6855,0,0,0,0,0,0,-2.6032,-2.6041,-2.5999,-2.616,-2.6196,-2.6212,-2.6301,-2.6249,-2.631,-2.6294,-2.6249,-2.6257,-2.6404,-2.6417,-2.6325,-2.6586,-2.6476,-2.6498,-2.6573,-2.6607,-2.6633,-2.6628,-2.6203,0,0,0,0,0,-2.6081,-2.6163,-2.6168,-2.631,-2.633,-2.6313,-2.6357,-2.6326,-2.6362,-2.6378,-2.6388,-2.6427,-2.6503,-2.6555,-2.6626,-2.6803,-2.6809,-2.6886,-2.6913,-2.6935,-2.6955,-2.705,-2.7085,-2.6712,-2.6712,-2.6712,0,0,-2.6186,-2.6202,-2.6257,-2.6339,-2.6364,-2.6451,-2.6327,-2.6424,-2.6489,-2.6393,-2.6523,-2.6532,-2.6572,-2.673,-2.68,-2.6745,-2.7059,-2.6955,-2.6973,-2.6981,-2.707,-2.7105,-2.7137,-2.6723,-2.6721,-2.6719,0,0,-2.6422,-2.6441,-2.6562,-2.6589,-2.6626,-2.6613,-2.6642,-2.6665,-2.6667,-2.6796,-2.6725,-2.6802,-2.6934,-2.6966,-2.7,-2.7246,-2.719,-2.727,-2.7411,-2.7504,-2.7534,-2.7559,-2.7649,-2.7681,-2.7289,-2.729,-2.729,0,-2.6548,-2.6676,-2.6631,-2.6734,-2.6773,-2.6687,-2.681,-2.6838,-2.6898,-2.6927,-2.6864,-2.7028,-2.7049,-2.7213,-2.7273,-2.7303,-2.7336,-2.7267,-2.7532,-2.7558,-2.7582,-2.7666,-2.77,-2.7299,-2.7298,-2.7297,-2.7296,0,-2.683,-2.6919,-2.7012,-2.707,-2.7119,-2.7232,-2.7205,-2.726,-2.7225,-2.7219,-2.7351,-2.7373,-2.7446,-2.7482,-2.745,-2.7643,-2.7607,-2.7539,-2.7428,-2.7627,-2.7706,-2.7738,-2.7313,-2.7309,-2.7307,-2.7304,0,0,-2.7161,-2.719,-2.7226,-2.7251,-2.7285,-2.7354,-2.7462,-2.7532,-2.7581,-2.7624,-2.7715,-2.7828,-2.7765,-2.7803,-2.7773,-2.7854,-2.8049,-2.7776,-2.7776,-2.7827,-2.8264,-2.8317,-2.8355,-2.8011,-2.8016,-2.8021,-2.8261,0,-2.7397,-2.7582,-2.7545,-2.7727,-2.781,-2.7728,-2.7823,-2.7855,-2.7852,-2.7922,-2.7918,-2.8,-2.7909,-2.7932,-2.8008,-2.8009,-2.8136,-2.7991,-2.8097,-2.8101,-2.8092,-2.8396,-2.8452,-2.8678,-2.8292,-2.8297,-2.83,0,-2.7698,-2.7751,-2.7941,-2.7961,-2.7995,-2.808,-2.8141,-2.8208,-2.8243,-2.8235,-2.8277,-2.823,-2.8339,-2.8224,-2.8374,-2.8276,-2.8316,-2.8323,-2.8331,-2.8342,-2.8215,-2.8417,-2.8749,-2.8784,-2.8348,-2.8344,-2.8341,0,-2.7922,-2.8041,-2.817,-2.8194,-2.8221,-2.8283,-2.8297,-2.8324,-2.8369,-2.8422,-2.845,-2.8516,-2.8553,-2.8605,-2.8578,-2.8497,-2.8734,-2.8617,-2.8732,-2.8733,-2.8787,-2.8785,-2.9133,-2.881,-2.881,-2.8809,-2.8808,0,-2.8192,-2.8312,-2.8271,-2.8351,-2.8483,-2.8439,-2.8571,-2.8576,-2.8601,-2.8681,-2.8614,-2.8691,-2.8649,-2.8724,-2.8703,-2.8831,-2.8847,-2.8845,-2.8839,-2.8853,-2.8853,-2.888,-2.8865,-2.8818,-2.8816,-2.8814,-2.8813,0,-2.8466,-2.8443,-2.8579,-2.8592,-2.8598,-2.8695,-2.8707,-2.8782,-2.8772,-2.8874,-2.8896,-2.8882,-2.8965,-2.8942,-2.9033,-2.9019,-2.9181,-2.9154,-2.917,-2.9164,-2.9281,-2.9271,-2.966,-2.971,-2.9354,-2.9357,-2.936,0,-2.8641,-2.8731,-2.8753,-2.8801,-2.8819,-2.8898,-2.8942,-2.8901,-2.895,-2.8995,-2.9065,-2.9142,-2.9202,-2.9339,-2.9338,-2.9407,-2.9382,-2.9513,-2.9392,-2.9403,-2.9386,-2.9382,-2.9391,-2.9539,-2.9543,-2.9546,-2.9549,0,-2.8953,-2.8937,-2.9002,-2.9064,-2.9118,-2.9165,-2.9206,-2.925,-2.9211,-2.927,-2.9353,-2.94,-2.9491,-2.9569,-2.9632,-2.9648,-2.9594,-2.9586,-2.9617,-2.9634,-2.964,-2.9639,-2.9238,-2.9579,-2.9576,-2.9573,-2.9572,-2.9571,-2.9184,-2.9261,-2.9288,-2.9363,-2.9389,-2.9428,-2.9499,-2.9497,-2.9566,-2.9636,-2.9608,-2.9704,-2.9735,-2.9814,-2.9837,-2.9913,-2.9863,-2.9907,-2.9919,-2.9931,-2.9946,-2.9625,-2.9924,-2.9923,-2.9922,-2.9922,-2.9921,0,-2.9495,-2.9507,-2.9577,-2.9635,-2.9694,-2.9634,-2.9676,-2.9731,-2.9816,-2.9848,-2.9908,-3.0004,-3.0079,-3.0082,-3.0152,-3.0212,-3.0189,-3.0232,-3.0229,-3.0233,-2.9986,-2.9953,-3.025,-3.025,-3.025,-3.025,-3.025,-3.0249,-2.9664,-2.979,-2.9777,-2.9915,-2.9927,-3.002,-3.0049,-3.0085,-3.0111,-3.0221,-3.0282,-3.0283,-3.0304,-3.0375,-3.0441,-3.044,-3.047,-3.0524,-3.0514,-3.0283,-3.0251,-3.022,-3.0189,-3.053,-3.053,-3.0755,-3.0757,-3.0759]},{"header":{"parameterUnit":"m.s-1","parameterCategory":1,"la1":30.2991,"la2":30.254,"lo1":-89.0895,"lo2":-89.0444,"dy":0.0017,"dx":0.0017,"nx":28,"ny":28,"refTime":"2025-01-01T03:00:00:Z","depth":0,"parameterNumber":3,"parameterNumberName":"V-component_of_WINDS"},"data":[0,0,0,0,0,0,0,0,0,0,0,0,0,0,0,0,0,0,0,0,0,0,0,0,0,0,0,0,0,0,0,0,0,0,0,0,0,0,0,0,0,0,0,0,0,0,0,0,0,0,0,0,0,0,0,0,0,0,-3.3389,-3.3389,0,-3.3466,-3.3467,-3.3467,-3.3419,-3.3417,-3.3415,-3.3413,-3.349,-3.3494,-3.3498,0,0,0,0,0,0,0,0,0,0,0,0,0,-3.3197,-3.3201,-3.3389,-3.339,-3.3391,-3.3466,-3.3467,-3.3468,-3.342,-3.3417,-3.3414,-3.3412,-3.3489,-3.3494,-3.3499,0,0,0,0,0,0,0,0,0,0,0,0,0,-3.3278,-3.3202,-3.3388,-3.3376,-3.3375,-3.3465,-3.3467,-3.3468,-3.342,-3.3417,-3.3414,-3.341,-3.3487,-3.3493,-3.3499,-3.3606,0,0,-3.3518,-3.3521,0,0,0,0,0,0,0,0,-3.3274,-3.3285,-3.3377,-3.3377,-3.3376,-3.343,-3.3428,-3.3514,-3.3421,-3.3403,-3.3413,-3.3409,-3.3473,-3.348,-3.3502,-3.3609,-3.3613,-3.3519,-3.3523,-3.3525,-3.3527,0,0,0,0,0,0,0,-3.3268,-3.3282,-3.3419,-3.3378,-3.3378,-3.3365,-3.3373,-3.3444,-3.3456,-3.3405,-3.3401,-3.3411,-3.3472,-3.3496,-3.3503,-3.3614,-3.3519,-3.3524,-3.3528,-3.3531,-3.3811,-3.3814,0,0,0,0,0,0,-3.3264,-3.3277,-3.3417,-3.3421,-3.3316,-3.3372,-3.338,-3.3416,-3.3455,-3.3458,-3.3414,-3.3409,-3.3487,-3.3496,-3.3506,-3.3632,-3.3525,-3.3531,-3.3535,-3.3807,-3.3812,-3.3816,0,0,0,0,0,0,-3.326,-3.3277,-3.3413,-3.3348,-3.3365,-3.3378,-3.3419,-3.3419,-3.3443,-3.3462,-3.3464,-3.3436,-3.3484,-3.3497,-3.3581,-3.3634,-3.3534,-3.354,-3.3803,-3.3809,-3.3814,-3.3886,0,0,0,0,0,0,-3.3255,-3.3276,-3.3317,-3.335,-3.3369,-3.3488,-3.3422,-3.3423,-3.3454,-3.3448,-3.3484,-3.3486,-3.3483,-3.3572,-3.3587,-3.3641,-3.3545,-3.3798,-3.3805,-3.3812,-3.3879,-3.3893,-3.3905,0,0,0,0,0,-3.3248,-3.3334,-3.3319,-3.3336,-3.342,-3.3492,-3.3502,-3.3497,-3.3459,-3.35,-3.3512,-3.3485,-3.3626,-3.3581,-3.3598,-3.3654,-3.3795,-3.3803,-3.3811,-3.3873,-3.389,-3.3905,0,0,0,0,0,0,-3.3306,-3.3338,-3.3322,-3.3421,-3.3454,-3.3483,-3.3535,-3.3516,-3.356,-3.3552,-3.3543,-3.3552,-3.3639,-3.3655,-3.3605,-3.3758,-3.3704,-3.3716,-3.3745,-3.3762,-3.3775,-3.3769,-3.355,0,0,0,0,0,-3.3331,-3.3387,-3.3411,-3.3496,-3.3514,-3.3522,-3.3552,-3.3546,-3.3579,-3.3593,-3.3611,-3.3644,-3.3695,-3.3729,-3.3778,-3.388,-3.3887,-3.3927,-3.3941,-3.3951,-3.3962,-3.4016,-3.4034,-3.3843,-3.3843,-3.3843,0,0,-3.3382,-3.3406,-3.3442,-3.3509,-3.3533,-3.359,-3.3534,-3.3597,-3.3639,-3.3602,-3.3682,-3.3697,-3.3733,-3.3827,-3.3869,-3.3842,-3.4016,-3.3962,-3.3971,-3.3975,-3.4027,-3.4045,-3.4061,-3.3849,-3.3848,-3.3847,0,0,-3.3504,-3.3529,-3.3602,-3.3628,-3.3666,-3.367,-3.3688,-3.372,-3.3728,-3.3809,-3.3782,-3.3832,-3.3921,-3.3947,-3.3972,-3.4104,-3.408,-3.412,-3.4189,-3.4242,-3.4257,-3.427,-3.4316,-3.4333,-3.413,-3.413,-3.413,0,-3.3563,-3.3649,-3.3642,-3.3707,-3.3736,-3.3706,-3.3779,-3.3804,-3.3856,-3.3877,-3.3847,-3.3957,-3.3979,-3.4078,-3.411,-3.4132,-3.4151,-3.4115,-3.4256,-3.4269,-3.4281,-3.4325,-3.4342,-3.4135,-3.4134,-3.4134,-3.4133,0,-3.3718,-3.3778,-3.3832,-3.3883,-3.3919,-3.3988,-3.3991,-3.4027,-3.4017,-3.4025,-3.4107,-3.4132,-3.4185,-3.4208,-3.4198,-3.4305,-3.4287,-3.4257,-3.4202,-3.4304,-3.4345,-3.4362,-3.4141,-3.4139,-3.4138,-3.4137,0,0,-3.388,-3.3926,-3.3946,-3.3968,-3.4007,-3.4053,-3.412,-3.4172,-3.4203,-3.424,-3.4295,-3.4371,-3.4342,-3.4371,-3.4364,-3.4411,-3.4512,-3.4374,-3.4375,-3.4398,-3.463,-3.4652,-3.4672,-3.4497,-3.45,-3.4502,-3.4626,0,-3.4004,-3.4121,-3.4117,-3.4226,-3.428,-3.4252,-3.431,-3.434,-3.4349,-3.4395,-3.4404,-3.4458,-3.4417,-3.4434,-3.4479,-3.449,-3.4558,-3.4481,-3.4547,-3.4549,-3.4539,-3.4693,-3.4718,-3.4834,-3.4642,-3.4645,-3.4647,0,-3.4164,-3.4206,-3.4321,-3.4352,-3.4374,-3.4427,-3.4473,-3.4519,-3.4552,-3.4554,-3.4586,-3.4571,-3.4638,-3.4582,-3.4673,-3.4621,-3.4647,-3.4657,-3.4661,-3.4667,-3.4604,-3.4702,-3.4871,-3.4888,-3.4672,-3.467,-3.4669,0,-3.427,-3.4355,-3.4435,-3.4455,-3.4492,-3.453,-3.4547,-3.4577,-3.4608,-3.4648,-3.4668,-3.4715,-3.4741,-3.4778,-3.4776,-3.4736,-3.4868,-3.4812,-3.4872,-3.4872,-3.4901,-3.4899,-3.5075,-3.4919,-3.4919,-3.4918,-3.4918,0,-3.4408,-3.448,-3.4482,-3.4531,-3.461,-3.4603,-3.4681,-3.4694,-3.4721,-3.4771,-3.4749,-3.4796,-3.4791,-3.4839,-3.4838,-3.4913,-3.4925,-3.4928,-3.4927,-3.493,-3.493,-3.4947,-3.4939,-3.4923,-3.4922,-3.4921,-3.492,0,-3.4539,-3.4544,-3.4629,-3.4657,-3.4666,-3.4723,-3.4747,-3.4793,-3.4799,-3.4863,-3.4877,-3.4887,-3.4942,-3.4944,-3.5007,-3.5006,-3.5097,-3.5087,-3.5086,-3.5084,-3.5143,-3.5137,-3.5336,-3.5361,-3.519,-3.5191,-3.5193,0,-3.4627,-3.4682,-3.4716,-3.4748,-3.4768,-3.482,-3.4851,-3.4847,-3.488,-3.4921,-3.4962,-3.5015,-3.5056,-3.5145,-3.5157,-3.5205,-3.5195,-3.5262,-3.5202,-3.5203,-3.5196,-3.5192,-3.5197,-3.5273,-3.5275,-3.5277,-3.5278,0,-3.4783,-3.4782,-3.4829,-3.4877,-3.4915,-3.4952,-3.4986,-3.5014,-3.5012,-3.5051,-3.5107,-3.5139,-3.5203,-3.5256,-3.5302,-3.5318,-3.5298,-3.5297,-3.5313,-3.5316,-3.5313,-3.5315,-3.5117,-3.5292,-3.5291,-3.529,-3.5289,-3.5288,-3.4895,-3.4941,-3.4972,-3.5025,-3.505,-3.5082,-3.5126,-3.5138,-3.5185,-3.5237,-3.5231,-3.5293,-3.5323,-3.5383,-3.5403,-3.5451,-3.5428,-3.5451,-3.5457,-3.5463,-3.5469,-3.5306,-3.5459,-3.5459,-3.5458,-3.5458,-3.5458,0,-3.5048,-3.5067,-3.5115,-3.5164,-3.5205,-3.5182,-3.5219,-3.5254,-3.5309,-3.5339,-3.5381,-3.5444,-3.5494,-3.5511,-3.5559,-3.5594,-3.5586,-3.5607,-3.5604,-3.5608,-3.5487,-3.5468,-3.5613,-3.5613,-3.5613,-3.5612,-3.5612,-3.5612,-3.5133,-3.521,-3.5213,-3.5302,-3.5319,-3.538,-3.5403,-3.5432,-3.5456,-3.5528,-3.557,-3.558,-3.5604,-3.5654,-3.5699,-3.5702,-3.5721,-3.5746,-3.5745,-3.5632,-3.5617,-3.5602,-3.5584,-3.575,-3.575,-3.5862,-3.5863,-3.5864]}]]